Reflectivity
-20 -20 -20 -20 -20 -20 -20 -20 -20 5 16 15 9 2 -15 -2 7 -14 -9 18 12 12 1 13 -1 7 1 -20 -20 -20 -20 -20
-20 -20 -20 -20 -20 -20 -20 -20 -20 -20 -20 1 2 5 13 11 13 19 -20 -15 20 10 10 20 8 16 -9 0 10 -20 -20 -20
-20 -20 -20 -20 -20 -20 -20 -20 -20 -20 -20 -17 4 -2 -2 4 4 11 13 5 20 3 9 22 -8 18 -4 17 21 11 11 -15
-20 -20 -20 -20 -20 -20 -20 -20 -20 -20 -20 -20 -20 -20 -10 -20 -18 -20 10 10 17 0 -8 -3 -6 15 23 8 24 -8 -12 9
-20 -20 -20 -20 -20 -20 -20 -20 -20 -20 -20 -20 -20 -20 -20 -20 -20 -20 -20 -20 -20 10 21 17 17 14 16 18 19 7 25 19
-20 -20 -20 -20 -20 -20 -20 -20 -20 -20 -20 -20 -20 -20 -20 -20 -20 -20 -20 -20 -20 -20 -20 -19 13 23 20 17 18 24 13 20
-20 -20 -20 -20 -20 -20 -20 -20 -20 -20 -20 -20 -20 -20 -20 -20 -20 -20 -20 -20 -20 -20 -20 -3 13 15 22 16 6 -6 17 19
-20 -20 -20 -20 -20 -20 -20 -20 -20 -20 -20 -20 -20 -20 -20 -20 -20 -20 -20 -20 -20 -20 -20 -20 1 9 -20 5 27 29 27 17
-20 -20 -20 -20 -20 -20 -20 -20 -20 -20 -20 -20 -20 -20 -20 -20 -20 -20 -20 -20 -20 -20 -20 -20 -20 -20 -13 9 -7 21 23 25
-20 -20 -20 -20 -20 -20 -20 -20 -20 -20 -20 -20 -20 -20 -20 -20 -20 -20 -20 -20 -20 -20 -20 -20 -20 -20 -20 -20 7 -7 4 18
-20 -20 -20 -20 -20 -20 -20 -20 -20 -20 -20 -20 -20 -20 -20 -20 -20 -20 -20 -20 -20 -20 -20 -20 -20 -20 -20 -20 -20 -5 -15 -3
-20 -20 -20 -20 -20 -20 -20 -20 -20 -20 -20 -20 -20 -20 -20 -20 -20 -19 -20 -3 -20 -6 -20 -7 4 -7 -20 -20 -20 -13 -14 -20
-20 -20 -20 -20 -20 -20 -20 -20 -20 -20 -20 -20 -20 -20 -20 -20 -2 -3 -20 -20 -20 -20 -20 -20 -5 -6 1 -20 -19 -20 -19 -20
-20 -20 -20 -20 -20 -20 -20 -20 -20 -20 -20 -20 -20 -20 -20 -19 -15 1 -20 -20 -20 -20 -20 -3 -20 -20 -12 -15 10 -20 -20 -16
-20 -20 -20 -20 -20 -20 -20 -20 -20 -20 -20 -20 -20 -20 -17 5 -8 7 7 14 18 1 -15 -20 -20 -20 -20 -20 -20 -5 -18 21
-20 -20 -20 -20 -20 -20 -20 -20 -20 -20 -20 -20 -20 -20 -20 -20 -18 6 12 19 -2 6 -19 -20 -20 -20 -18 -20 -20 -5 -10 9
-20 -20 -20 -20 -20 -20 -20 -20 -20 -20 -20 -20 -20 -20 -20 -20 -20 -20 -19 8 13 -9 -20 -20 -20 -20 -20 8 -19 -10 -20 9
-20 -20 -20 -20 -20 -20 -20 -20 -20 -20 -20 -20 -20 -20 -20 -20 -20 -20 -20 -20 -20 -20 -20 -20 -11 -20 -20 -20 -20 -19 -20 2
-20 -20 -20 -20 -20 -20 -20 -20 -20 -20 -20 -20 -20 -20 -20 -20 -20 -20 -16 -20 -20 -20 -20 -20 -3 -20 -4 -19 -20 -20 -20 -6
Wind_Speed
8 9 8 11 11 12 11 9 6 1 3 4 4 4 5 5 5 4 5 6 11 12 11 12 11 10 11 11 12 11 10 9
8 9 10 11 11 11 10 9 9 7 3 2 4 5 6 6 9 10 11 11 12 11 10 12 13 12 14 13 12 14 12 11
7 8 8 8 9 9 9 9 9 8 6 3 4 6 6 6 6 7 7 8 11 10 12 12 15 12 14 15 17 13 12 12
6 6 7 7 8 7 8 8 8 7 8 5 5 4 4 4 4 7 7 9 12 15 14 14 14 12 13 16 16 19 14 13
6 5 6 6 7 7 8 8 7 6 6 7 7 6 6 5 6 5 7 6 4 7 11 15 16 12 14 14 14 15 16 15
4 4 3 5 6 6 6 8 8 7 7 7 7 7 7 6 5 7 8 7 8 8 9 9 12 12 14 15 14 16 15 14
1 2 3 5 3 6 7 10 11 9 9 9 8 9 9 8 7 7 6 7 6 8 9 9 8 9 13 14 17 20 18 17
4 6 7 6 6 7 8 9 12 12 11 11 11 11 11 11 9 7 6 6 5 6 9 8 8 9 6 7 11 13 16 15
6 8 10 11 12 13 12 12 14 14 13 13 11 12 9 9 9 7 6 6 6 6 7 8 9 9 9 7 5 8 9 12
11 13 12 13 14 16 16 17 15 15 14 12 13 12 13 12 13 10 8 8 8 8 8 8 10 10 10 10 6 7 7 10
11 12 14 14 14 14 14 14 16 14 13 12 11 13 13 13 12 12 12 11 11 11 11 10 10 11 9 9 9 6 7 9
12 12 13 14 14 14 14 15 13 12 12 12 11 10 11 12 12 13 12 11 13 12 12 13 12 12 11 10 10 11 9 10
13 13 13 12 13 15 13 13 15 12 13 13 12 12 11 11 12 12 11 12 13 13 13 14 10 13 12 11 11 10 10 10
12 13 12 12 14 15 13 12 13 13 13 14 14 13 13 12 13 16 16 15 14 13 12 13 8 9 10 12 11 11 10 10
13 13 14 14 14 15 15 12 15 16 15 15 15 15 14 13 11 11 16 15 15 15 13 11 10 11 11 9 10 11 8 7
16 15 16 17 17 17 17 17 17 16 17 19 16 15 14 12 12 10 13 14 13 15 13 12 10 10 8 9 7 7 6 9
17 17 17 18 18 18 19 19 20 19 19 19 19 18 18 16 14 11 12 13 13 13 13 13 11 7 7 10 9 7 7 7
17 18 18 19 20 19 20 20 20 20 21 21 21 20 19 18 18 17 14 12 14 15 13 14 13 12 7 9 11 6 5 5
20 20 20 21 22 21 21 21 21 21 22 21 20 20 20 19 18 16 12 12 13 13 13 13 11 8 3 9 11 8 4 4
Wind_Direction
81 67 53 56 42 50 54 44 23 311 249 230 260 263 260 267 267 240 227 191 207 227 238 239 225 219 219 218 220 213 224 211
97 71 53 49 40 41 42 42 24 25 0 303 265 259 253 248 248 243 220 220 212 216 235 232 232 228 221 203 215 219 214 204
99 83 69 51 41 23 22 23 21 8 6 327 287 312 301 298 289 271 247 225 228 222 226 227 233 229 222 220 200 211 221 202
116 85 65 43 41 28 23 14 22 17 351 343 334 273 257 275 308 315 290 276 241 222 220 222 225 228 223 216 210 199 205 213
93 75 56 44 26 7 359 359 1 9 351 338 339 316 310 332 291 279 282 281 277 268 253 234 227 226 231 221 209 211 212 209
99 77 40 71 17 346 330 319 313 322 323 325 318 317 318 313 314 314 294 291 284 273 269 253 256 246 235 220 216 218 215 224
328 107 35 59 43 344 329 314 307 301 294 293 292 297 303 305 306 298 306 306 309 322 323 324 302 281 247 230 210 216 217 220
306 9 3 2 352 340 321 319 303 297 292 283 277 273 274 273 278 284 299 297 305 304 313 303 306 298 291 303 255 231 227 227
345 341 342 330 325 320 319 301 297 291 281 276 272 269 268 268 267 272 278 283 285 278 273 295 292 293 305 294 282 267 237 227
335 337 323 320 319 318 316 308 298 296 291 288 283 273 269 271 273 268 265 269 267 272 287 290 299 297 291 291 275 263 240 235
320 317 319 320 320 316 310 312 305 297 294 292 285 281 277 272 272 267 267 267 267 270 276 278 284 289 294 289 285 269 241 245
320 321 317 315 310 311 314 311 303 301 296 303 305 300 286 277 270 269 272 269 275 277 279 288 286 284 284 280 280 283 257 256
319 316 309 312 317 313 305 306 305 319 318 314 318 309 313 314 298 283 297 301 297 284 283 282 283 282 284 282 279 275 270 253
316 312 314 318 314 314 310 311 312 303 303 306 302 306 311 315 326 330 319 312 302 295 296 291 296 276 277 274 275 278 269 263
306 309 319 316 312 311 315 309 311 313 309 302 308 315 314 302 295 299 301 303 302 296 294 288 283 281 269 256 268 271 260 258
312 308 305 303 304 304 301 300 302 297 291 295 293 288 282 286 293 287 290 290 281 286 287 285 285 275 267 260 238 234 241 257
305 303 307 310 308 307 305 299 295 292 291 290 289 288 287 285 273 267 274 269 284 289 291 292 285 272 243 232 234 230 216 216
308 313 311 309 308 304 300 300 301 295 289 288 288 287 283 284 283 281 277 291 299 292 290 291 285 283 196 219 223 229 208 197
314 310 304 302 299 297 298 298 294 290 287 286 284 288 293 290 285 281 288 291 289 296 295 294 293 293 216 224 221 220 198 177